Weather in Taraskovo

Russia / Sverdlovsk Oblast     57°07′37″N   60°03′46″E
temp.,
°C
wind,
m/s
gust,
m/s
humid.,
%
clouds,
%
prec.,
mm/h
press.,
hPa
HPBL,
m
5 december, sun
sun523:00+1sw81894100 0.1 10071162
02:00+1sw71596100 0.2 10071034
05:000sw51297100 0.9 1007926
08:000w41095100 0.8 1008990
11:00−2wsw3987100 0.8 1010799
14:00−2w478393 0.1 1011937
17:00−5w389074 0.2 1013458
20:00−5w3887100 0.1 1015734
6 december, mon
mon623:00−6wsw399072 0.1 1016490
02:00−7wsw499398 0.1 1016612
05:00−10w41086100 0.2 1018633
08:00−12wnw3881100 0.0 1019444
11:00−14wnw368160 0.0 1021382
14:00−13wnw367550 0.0 1022477
17:00−14w38855 0.0 1024364
20:00−15w3108734 0.0 1025395
7 december, tue
tue723:00−16w3118831 0.0 1026385
02:00−17w379031 0.0 1028269
05:00−17w38905 0.0 1030263
08:00−16w3129131 0.0 1031347
11:00−15w413854 0.0 1032365
14:00−13w412774 0.0 1032391
17:00−14w412844 0.0 1034352
20:00−16w36955 0.0 1036182
8 december, wed
wed823:00−16w24965 0.0 1037109
02:00−16wsw239596 0.0 103772
05:00−15wsw2294100 0.0 103840
08:00−12sw1181100 0.0 103733
11:00−10ssw2371100 0.0 103798
14:00−7s2762100 0.0 1035207
17:00−8sse2575100 0.2 1034127
20:00−7ssw41386100 0.5 1032460
9 december, thu
thu923:00−4sw51695100 2.6 1030618
02:00−2sw61790100 0.6 1029616
05:00−3wsw61790100 0.6 1030503
08:00−3wsw51591100 0.0 1031411
11:00−2wsw41489100 0.0 1031403
14:00−1wsw31286100 0.0 1031413
17:00−3wsw31287100 0.0 1032343
20:00−3wsw21087100 0.0 1032237